Tracking 28125 objects as of 4-Oct-2023
HD Live streaming from Space Station
objects crossing your sky now

COSMOS 1823 DEB

Track COSMOS 1823 DEB now!
10-day predictions


NORAD ID: 19006
Int'l Code: 1987-020BB
Perigee: 880.4 km
Apogee: 960.5 km
Inclination: 73.4 °
Period: 103.3 minutes
Semi major axis: 7291 km
RCS: 0.0433 m2 (small)
Launch date: February 20, 1987
Source: Commonwealth of Independent States (former USSR) (CIS)
Launch site: PLESETSK MISSILE AND SPACE COMPLEX (PKMTR)

Note: This is SATELLITE DEBRIS
Your satellite tracking list
Your tracking list is empty




NASA's NSSDC Master Catalog

Two Line Element Set (TLE):
1 19006U 87020BB  23276.26165506  .00035915  00000-0  26538-1 0  9992
2 19006  73.4363 314.2596 0054959 333.2726 105.3196 13.94388326708122
Source of the keplerian elements: AFSPC